EN

Hourly Weather Lahti

Today, 23 July, Friday

Time Temperature Precipitation Wind Pressure Humidity
00:00 +13°C° 0 mm 3 mps 746 mmHg 71%
01:00 +13°C° 0 mm 2 mps 746 mmHg 76%
02:00 +12°C° 0 mm 2 mps 746 mmHg 80%
03:00 +12°C° 0 mm 2 mps 746 mmHg 80%
04:00 +12°C° 0 mm 2 mps 746 mmHg 80%
05:00 +12°C° 0 mm 2 mps 746 mmHg 80%
06:00 +13°C° 0 mm 3 mps 747 mmHg 69%
07:00 +16°C° 0 mm 3 mps 747 mmHg 59%
08:00 +18°C° 0 mm 4 mps 747 mmHg 48%
09:00 +19°C° 0 mm 4 mps 747 mmHg 43%
10:00 +20°C° 0 mm 4 mps 747 mmHg 39%
11:00 +21°C° 0 mm 4 mps 747 mmHg 35%
12:00 +21°C° 0 mm 4 mps 747 mmHg 35%
13:00 +21°C° 0 mm 4 mps 747 mmHg 34%
14:00 +22°C° 0 mm 4 mps 747 mmHg 33%
15:00 +21°C° 0 mm 4 mps 748 mmHg 35%
16:00 +21°C° 0 mm 4 mps 748 mmHg 36%
17:00 +20°C° 0 mm 4 mps 748 mmHg 37%
18:00 +19°C° 0 mm 3 mps 748 mmHg 41%
19:00 +18°C° 0 mm 2 mps 749 mmHg 45%
20:00 +17°C° 0 mm 2 mps 749 mmHg 49%
21:00 +15°C° 0 mm 2 mps 749 mmHg 53%
22:00 +14°C° 0 mm 1 mps 750 mmHg 57%
23:00 +12°C° 0 mm 1 mps 750 mmHg 61%

Tomorrow, 24 July, Saturday

Time Temperature Precipitation Wind Pressure Humidity
00:00 +11°C° 0 mm 1 mps 750 mmHg 63%
01:00 +11°C° 0 mm 1 mps 750 mmHg 65%
02:00 +10°C° 0 mm 1 mps 751 mmHg 67%
03:00 +10°C° 0 mm 1 mps 751 mmHg 67%
04:00 +11°C° 0 mm 1 mps 751 mmHg 66%
05:00 +11°C° 0 mm 1 mps 751 mmHg 66%
06:00 +13°C° 0 mm 1 mps 751 mmHg 58%
07:00 +15°C° 0 mm 0 mps 751 mmHg 50%
08:00 +17°C° 0 mm 0 mps 752 mmHg 43%
09:00 +20°C° 0 mm 1 mps 752 mmHg 40%
10:00 +21°C° 0 mm 1 mps 752 mmHg 36%
11:00 +22°C° 0 mm 1 mps 752 mmHg 33%
12:00 +23°C° 0 mm 2 mps 751 mmHg 33%
13:00 +23°C° 0 mm 2 mps 751 mmHg 32%
14:00 +24°C° 0 mm 2 mps 751 mmHg 32%
15:00 +24°C° 0 mm 2 mps 751 mmHg 32%
16:00 +24°C° 0 mm 2 mps 751 mmHg 33%
17:00 +25°C° 0 mm 3 mps 751 mmHg 34%
18:00 +22°C° 0 mm 3 mps 751 mmHg 39%
19:00 +21°C° 0 mm 3 mps 751 mmHg 45%
20:00 +20°C° 0 mm 3 mps 751 mmHg 50%
21:00 +19°C° 0 mm 3 mps 751 mmHg 55%
22:00 +18°C° 0 mm 3 mps 751 mmHg 59%
23:00 +17°C° 0 mm 3 mps 752 mmHg 64%

Day after tomorrow, 25 July, Sunday

Time Temperature Precipitation Wind Pressure Humidity
00:00 +15°C° 0 mm 2 mps 752 mmHg 71%
01:00 +14°C° 0 mm 2 mps 752 mmHg 77%
02:00 +13°C° 0 mm 2 mps 752 mmHg 84%
03:00 +13°C° 0 mm 2 mps 753 mmHg 84%
04:00 +13°C° 0 mm 1 mps 753 mmHg 84%
05:00 +13°C° 0 mm 1 mps 753 mmHg 83%
06:00 +15°C° 0 mm 1 mps 753 mmHg 74%
07:00 +19°C° 0 mm 1 mps 753 mmHg 64%
08:00 +21°C° 0 mm 1 mps 753 mmHg 54%
09:00 +22°C° 0 mm 1 mps 753 mmHg 49%
10:00 +24°C° 0 mm 1 mps 753 mmHg 43%
11:00 +26°C° 0 mm 1 mps 753 mmHg 38%
12:00 +26°C° 0 mm 1 mps 753 mmHg 36%
13:00 +27°C° 0 mm 1 mps 753 mmHg 34%
14:00 +28°C° 0 mm 1 mps 753 mmHg 32%
15:00 +28°C° 0 mm 1 mps 753 mmHg 32%
16:00 +28°C° 0 mm 1 mps 753 mmHg 33%
17:00 +28°C° 0 mm 1 mps 753 mmHg 33%
18:00 +26°C° 0 mm 2 mps 753 mmHg 40%
19:00 +25°C° 0 mm 2 mps 753 mmHg 46%
20:00 +23°C° 0 mm 2 mps 753 mmHg 53%
21:00 +21°C° 0 mm 2 mps 753 mmHg 60%
22:00 +19°C° 0 mm 2 mps 754 mmHg 67%
23:00 +17°C° 0 mm 2 mps 754 mmHg 74%

26 July, Monday

Time Temperature Precipitation Wind Pressure Humidity
00:00 +17°C° 0 mm 2 mps 754 mmHg 77%
01:00 +16°C° 0 mm 2 mps 754 mmHg 80%
02:00 +16°C° 0 mm 1 mps 754 mmHg 83%
03:00 +16°C° 0 mm 1 mps 754 mmHg 82%
04:00 +16°C° 0 mm 1 mps 755 mmHg 81%
05:00 +16°C° 0 mm 1 mps 755 mmHg 80%
06:00 +19°C° 0 mm 1 mps 755 mmHg 70%
07:00 +22°C° 0 mm 1 mps 755 mmHg 61%
08:00 +22°C° 0 mm 0 mps 755 mmHg 51%
09:00 +26°C° 0 mm 1 mps 755 mmHg 46%
10:00 +27°C° 0 mm 1 mps 755 mmHg 41%
11:00 +29°C° 0 mm 1 mps 755 mmHg 36%
12:00 +30°C° 0 mm 1 mps 755 mmHg 33%
13:00 +30°C° 0 mm 2 mps 755 mmHg 31%
14:00 +31°C° 0 mm 2 mps 755 mmHg 29%
15:00 +30°C° 0 mm 2 mps 754 mmHg 29%
16:00 +30°C° 0 mm 2 mps 754 mmHg 28%
17:00 +30°C° 0 mm 3 mps 754 mmHg 28%
18:00 +28°C° 0 mm 2 mps 754 mmHg 35%
19:00 +26°C° 0 mm 2 mps 754 mmHg 41%
20:00 +24°C° 0 mm 2 mps 754 mmHg 48%
21:00 +22°C° 0 mm 1 mps 754 mmHg 54%
22:00 +21°C° 0 mm 1 mps 754 mmHg 60%
23:00 +19°C° 0 mm 1 mps 754 mmHg 66%

27 July, Tuesday

Time Temperature Precipitation Wind Pressure Humidity
00:00 +18°C° 0 mm 1 mps 754 mmHg 66%
01:00 +18°C° 0 mm 1 mps 754 mmHg 67%
02:00 +18°C° 0 mm 1 mps 754 mmHg 68%
03:00 +18°C° 0 mm 1 mps 754 mmHg 67%
04:00 +18°C° 0 mm 1 mps 754 mmHg 67%
05:00 +19°C° 0 mm 1 mps 754 mmHg 67%
06:00 +20°C° 0 mm 2 mps 754 mmHg 59%
07:00 +23°C° 0 mm 2 mps 754 mmHg 52%
08:00 +26°C° 0 mm 3 mps 754 mmHg 45%
09:00 +27°C° 0 mm 3 mps 753 mmHg 42%
10:00 +28°C° 0 mm 3 mps 753 mmHg 39%
11:00 +30°C° 0 mm 3 mps 753 mmHg 36%
12:00 +30°C° 0 mm 4 mps 752 mmHg 35%
13:00 +30°C° 0 mm 4 mps 752 mmHg 34%
14:00 +32°C° 0 mm 5 mps 752 mmHg 33%
15:00 +32°C° 0 mm 4 mps 752 mmHg 34%
16:00 +30°C° 0 mm 4 mps 751 mmHg 35%
17:00 +30°C° 0 mm 4 mps 751 mmHg 36%
18:00 +29°C° 0 mm 4 mps 751 mmHg 40%
19:00 +27°C° 0 mm 3 mps 750 mmHg 44%
20:00 +26°C° 0 mm 3 mps 750 mmHg 48%
21:00 +24°C° 0 mm 3 mps 750 mmHg 54%
22:00 +23°C° 0 mm 2 mps 750 mmHg 60%
23:00 +21°C° 0 mm 2 mps 749 mmHg 65%

28 July, Wednesday

Time Temperature Precipitation Wind Pressure Humidity
00:00 +20°C° 0.1 mm 2 mps 749 mmHg 72%
01:00 +19°C° 0.1 mm 2 mps 749 mmHg 79%
02:00 +18°C° 0.1 mm 2 mps 749 mmHg 86%
03:00 +18°C° 0.1 mm 2 mps 748 mmHg 87%
04:00 +19°C° 0.1 mm 2 mps 748 mmHg 89%
05:00 +19°C° 0.1 mm 2 mps 748 mmHg 90%
06:00 +19°C° 0.3 mm 2 mps 748 mmHg 89%
07:00 +20°C° 0.3 mm 2 mps 747 mmHg 87%
08:00 +20°C° 0.3 mm 2 mps 747 mmHg 85%
09:00 +21°C° 0.2 mm 3 mps 747 mmHg 81%
10:00 +22°C° 0.2 mm 3 mps 747 mmHg 77%
11:00 +24°C° 0.2 mm 3 mps 747 mmHg 73%
12:00 +24°C° 0.7 mm 3 mps 746 mmHg 73%
13:00 +24°C° 0.7 mm 3 mps 746 mmHg 73%
14:00 +25°C° 0.7 mm 3 mps 746 mmHg 72%
15:00 +23°C° 2.2 mm 2 mps 746 mmHg 81%
16:00 +20°C° 2.2 mm 2 mps 746 mmHg 89%
17:00 +20°C° 2.2 mm 1 mps 746 mmHg 97%
18:00 +20°C° 0.5 mm 1 mps 745 mmHg 97%
19:00 +20°C° 0.5 mm 1 mps 745 mmHg 96%
20:00 +20°C° 0.5 mm 1 mps 745 mmHg 96%
21:00 +18°C° 0 mm 2 mps 745 mmHg 97%
22:00 +18°C° 0 mm 2 mps 745 mmHg 97%
23:00 +17°C° 0 mm 2 mps 745 mmHg 98%
Show more